Погода в Гнезно

Польша     52°31′28″N   17°35′51″E
темп.,
°C
ветер,
м/с
пор.,
м/с
влажн.,
%
обл.,
%
осадки,
мм/ч
давл.,
гПа
погр.,
м
27 сентября, пн
пн2723:00+14вюв49845 0.0 1021183
02:00+13вюв410855 0.0 1021221
05:00+12вюв4109456 0.0 1020209
08:00+13вюв51087100 0.0 1020279
11:00+17вюв686467 0.0 1020579
14:00+20вюв775496 0.0 10191011
17:00+19вюв5759100 0.0 1019939
20:00+15вюв61259100 0.0 1020359
28 сентября, вт
вт2823:00+13вюв51162100 0.0 1021299
02:00+12вюв4967100 0.0 1021225
05:00+11вюв4769100 0.0 1022197
08:00+12вюв4668100 0.0 1022220
11:00+14юв4562100 0.0 1023387
14:00+16юв345699 0.0 1023711
17:00+16вюв366097 0.0 1024290
20:00+15вюв4861100 0.0 1024308
29 сентября, ср
ср2923:00+14вюв596490 0.0 1025327
02:00+12юв4969100 0.0 1024252
05:00+10вюв4107891 0.0 1024224
08:00+10вюв5117591 0.0 1023302
11:00+14вюв7105490 0.0 1022649
14:00+17юв81044100 0.0 10201034
17:00+17юв6954100 0.0 1019888
20:00+15юв41066100 0.0 1019246
30 сентября, чт
чт3023:00+15юз3669100 0.0 1020195
02:00+14зюз3690100 0.8 1021260
05:00+11з379599 0.0 1023185
08:00+10зюз3786100 0.0 1025265
11:00+14зюз675082 0.0 1026936
14:00+15зюз66375 0.0 10261705
17:00+15зюз56405 0.0 10261813
20:00+10зюз34555 0.0 102748
1 октября, пт
пт123:00+9юз33600 0.0 102834
02:00+7ююз346310 0.0 102846
05:00+7ю346260 0.0 102756
08:00+8ююв385790 0.0 1027170
11:00+14ююв574633 0.0 1026558
14:00+17ю56305 0.0 10241255
17:00+16ююв4737100 0.0 1022330
20:00+12ююв465269 0.0 102187